Simultaneous Nadir Overpasses (SNOs) Predictions

Prediction of SNOs between METOP-A and NOAA-19 Satellite Orbit:

Table of predicted SNOs for the next 14.0 days since TLE Epoch: 5/30/2014
Index Date (METOP-A) Time (METOP-A) Lat,Lon (METOP-A) SZA (METOP-A ) Date (NOAA-19) Time (NOAA-19) Lat,Lon (NOAA-19) SZA (NOAA-19 ) Distance(km) Time Diff (sec)
1 06/08/2014 06:35:50 74.07, 75.71 51.22 06/08/2014 06:34:39 74.08, 75.80 51.24 2.96 71
2 06/08/2014 07:26:31 -74.09,-116.91 128.77 06/08/2014 07:25:35 -74.09,-116.95 128.76 1.23 56
3 06/08/2014 08:17:12 74.05, 50.32 51.19 06/08/2014 08:16:42 74.05, 50.36 51.20 1.30 30
4 06/08/2014 09:07:53 -74.07,-142.30 128.80 06/08/2014 09:07:38 -74.06,-142.39 128.80 2.83 15
5 06/08/2014 09:58:34 74.03, 24.93 51.17 06/08/2014 09:58:45 74.02, 24.93 51.16 0.72 11
6
